Location: Overspoor
(51.4747°N, 5.6641°E)
Time: 14:08:02
(UTC+02:00)

RS-15 - Pass Details

Date: 04 July 2022
Orbit: 1881 x 2163 km, 64.8° (Epoch: 13 August)

Event Time Altitude Azimuth Distance (km) Brightness Sun altitude
Rises 23:17:18 0° 312° (NW) 5,690 12.3 -9.2°
Reaches altitude 10° 23:20:48 10° 315° (NW) 4,691 11.5 -9.5°
Maximum altitude 23:33:16 74° 42° (NE) 2,219 8.4 -10.5°
Drops below altitude 10° 23:45:22 10° 127° (SE) 4,574 9.4 -11.4°
Enters shadow 23:45:53 - 128° (SE) 4,721 9.5 -11.5°
